Weather in Antilokhovo

Russia / Ivanovo Oblast     56°30′29″N   41°08′27″E
temp.,
°C
wind,
m/s
gust,
m/s
humid.,
%
clouds,
%
prec.,
mm/h
press.,
hPa
HPBL,
m
21 january, fri
fri2100:00−7s61491100 0.1 1006591
03:00−9s51391100 0.1 1006521
06:00−9s51294100 0.3 1004505
09:00−8sse51294100 1.0 1005514
12:00−7sse51394100 0.9 1004557
15:00−7sse51292100 1.4 1003743
18:00−7sse51294100 0.7 1003782
21:00−7se51193100 1.1 1002605
22 january, sat
sat2200:00−8se41093100 0.2 1003438
03:00−7se41095100 1.5 1004508
06:00−7se389693 0.5 1005246
09:00−7se4109497 0.6 1008402
12:00−6se4893100 0.1 1010447
15:00−6se489399 0.3 1011534
18:00−7se3895100 0.1 1014379
21:00−8ese269684 0.3 1016209
23 january, sun
sun2300:00−13ese239976 0.1 101942
03:00−13ese129875 0.1 102157
06:00−16ese1110080 0.1 10239
09:00−16se119986 0.1 102615
12:00−10s119486 0.1 1028118
15:00−9nne119751 0.1 103010
18:00−16ne1110083 0.0 10339
21:00−18ene11100100 0.0 10359
24 january, mon
mon2400:00−20nne22100100 0.0 103614
03:00−21ne22100100 0.1 103716
06:00−21ne22100100 0.0 103720
09:00−19nne24100100 0.1 103856
12:00−10ne2496100 0.1 1037173
15:00−8e259678 0.1 1035211
18:00−13ene2210099 0.0 103432
21:00−16e2210086 0.0 103411
25 january, tue
tue2500:00−18ese119969 0.0 10339
03:00−18se21100100 0.0 103124
06:00−17se259852 0.0 103064
09:00−16sse279775 0.0 1028108
12:00−9s3789100 0.0 1027244
15:00−7sse269276 0.0 1026303
18:00−11sse289761 0.0 1026152
21:00−12sse289762 0.0 1026134